NKS380 KMCO-KFLL

Flight info

Callsign NKS380
Flight time 0h 36m
Altitude 27000
Route DDANY3 JIPOD CUUDA3
Aircraft A320/M-SDE3FGHIRWY/LB1

Departure

Time 2026-05-04 02:13
Airport Orlando International Airport (KMCO)

Arrival

Time 2026-05-04 02:49
Airport Fort Lauderdale Hollywood International Airport (KFLL)
Time Latitude Longitude Altitude Speed Heading
2026-05-04 02:03 28.43601 -81.31304 102 ft 0 kts 167°
2026-05-04 02:04 28.43609 -81.31306 93 ft 4 kts 170°
2026-05-04 02:04 28.43636 -81.31309 103 ft 4 kts 186°
2026-05-04 02:05 28.43661 -81.31302 101 ft 4 kts 208°
2026-05-04 02:05 28.43682 -81.31284 99 ft 4 kts 234°
2026-05-04 02:05 28.43690 -81.31270 100 ft 0 kts 247°
2026-05-04 02:07 28.43689 -81.31271 100 ft 1 kts 247°
2026-05-04 02:07 28.43685 -81.31295 100 ft 5 kts 274°
2026-05-04 02:07 28.43686 -81.31354 102 ft 10 kts 271°
2026-05-04 02:08 28.43698 -81.31452 101 ft 17 kts 279°
2026-05-04 02:08 28.43680 -81.31604 102 ft 22 kts 218°
2026-05-04 02:08 28.43533 -81.31656 102 ft 23 kts 191°
2026-05-04 02:08 28.43372 -81.31689 102 ft 24 kts 194°
2026-05-04 02:09 28.43239 -81.31804 101 ft 26 kts 236°
2026-05-04 02:09 28.43132 -81.31973 102 ft 26 kts 219°
2026-05-04 02:09 28.42951 -81.31993 102 ft 28 kts 180°
2026-05-04 02:09 28.42758 -81.31993 107 ft 28 kts 179°
2026-05-04 02:10 28.42557 -81.31992 109 ft 30 kts 179°
2026-05-04 02:10 28.42339 -81.31987 109 ft 32 kts 180°
2026-05-04 02:10 28.42103 -81.31983 106 ft 36 kts 179°
2026-05-04 02:10 28.41857 -81.31981 103 ft 34 kts 179°
2026-05-04 02:11 28.41629 -81.31977 99 ft 22 kts 179°
2026-05-04 02:11 28.41546 -81.32049 101 ft 15 kts 263°
2026-05-04 02:11 28.41540 -81.32168 102 ft 7 kts 277°
2026-05-04 02:11 28.41582 -81.32194 102 ft 8 kts 354°
2026-05-04 02:12 28.41613 -81.32196 102 ft 0 kts
2026-05-04 02:12 28.41711 -81.32195 100 ft 48 kts
2026-05-04 02:13 28.42303 -81.32200 109 ft 118 kts 359°
2026-05-04 02:13 28.43296 -81.32206 179 ft 162 kts
2026-05-04 02:13 28.44422 -81.32227 959 ft 163 kts
2026-05-04 02:13 28.45555 -81.32254 1782 ft 161 kts 10°
2026-05-04 02:14 28.46612 -81.31753 2179 ft 176 kts 47°
2026-05-04 02:14 28.47219 -81.30482 2610 ft 199 kts 73°
2026-05-04 02:14 28.47722 -81.28910 3146 ft 223 kts 69°
2026-05-04 02:14 28.48334 -81.27179 3726 ft 248 kts 68°
2026-05-04 02:15 28.49010 -81.25313 4578 ft 260 kts 69°
2026-05-04 02:15 28.49707 -81.23394 5481 ft 270 kts 69°
2026-05-04 02:15 28.50363 -81.21364 6451 ft 277 kts 76°
2026-05-04 02:15 28.50702 -81.19178 7308 ft 285 kts 90°
2026-05-04 02:16 28.50313 -81.16952 8179 ft 292 kts 115°
2026-05-04 02:16 28.49172 -81.15022 9036 ft 298 kts 131°
2026-05-04 02:16 28.47834 -81.13182 9915 ft 305 kts 133°
2026-05-04 02:16 28.46437 -81.11299 10416 ft 326 kts 133°
2026-05-04 02:17 28.44917 -81.09260 10767 ft 348 kts 133°
2026-05-04 02:17 28.43331 -81.07123 11431 ft 358 kts 133°
2026-05-04 02:17 28.41722 -81.04937 12214 ft 363 kts 134°
2026-05-04 02:17 28.40099 -81.02722 13042 ft 367 kts 134°
2026-05-04 02:18 28.38459 -81.00486 13851 ft 371 kts 135°
2026-05-04 02:18 28.36799 -80.98227 14541 ft 375 kts 135°
2026-05-04 02:18 28.35112 -80.95933 15207 ft 380 kts 135°
2026-05-04 02:18 28.33429 -80.93646 15853 ft 385 kts 136°
2026-05-04 02:19 28.31697 -80.91292 16519 ft 389 kts 136°
2026-05-04 02:19 28.29949 -80.88914 17176 ft 394 kts 136°
2026-05-04 02:19 28.28267 -80.86401 17666 ft 410 kts 129°
2026-05-04 02:19 28.26907 -80.83438 17801 ft 437 kts 117°
2026-05-04 02:20 28.25747 -80.80168 17934 ft 455 kts 117°
2026-05-04 02:20 28.24509 -80.76858 18059 ft 466 kts 123°
2026-05-04 02:20 28.22646 -80.73844 18245 ft 465 kts 140°
2026-05-04 02:20 28.20263 -80.71356 18620 ft 466 kts 145°
2026-05-04 02:21 28.17822 -80.68913 19082 ft 470 kts 145°
2026-05-04 02:21 28.15384 -80.66477 19561 ft 473 kts 146°
2026-05-04 02:21 28.12899 -80.63997 20051 ft 476 kts 146°
2026-05-04 02:21 28.10412 -80.61511 20522 ft 479 kts 146°
2026-05-04 02:22 28.07896 -80.59002 20854 ft 484 kts 146°
2026-05-04 02:22 28.05353 -80.56469 21218 ft 488 kts 146°
2026-05-04 02:22 28.02794 -80.53916 21574 ft 490 kts 146°
2026-05-04 02:22 28.00259 -80.51387 21941 ft 492 kts 146°
2026-05-04 02:23 27.97677 -80.48816 22326 ft 494 kts 146°
2026-05-04 02:23 27.95083 -80.46238 22707 ft 496 kts 146°
2026-05-04 02:23 27.92476 -80.43646 23085 ft 499 kts 146°
2026-05-04 02:23 27.89865 -80.41050 23451 ft 501 kts 146°
2026-05-04 02:24 27.87233 -80.38436 23791 ft 504 kts 147°
2026-05-04 02:24 27.84621 -80.35846 24091 ft 506 kts 147°
2026-05-04 02:24 27.81969 -80.33222 24401 ft 508 kts 147°
2026-05-04 02:24 27.79294 -80.30578 24719 ft 511 kts 147°
2026-05-04 02:25 27.76606 -80.27921 25043 ft 514 kts 147°
2026-05-04 02:25 27.73905 -80.25248 25377 ft 516 kts 147°
2026-05-04 02:25 27.71199 -80.22570 25680 ft 519 kts 147°
2026-05-04 02:25 27.68477 -80.19881 26043 ft 521 kts 147°
2026-05-04 02:26 27.65750 -80.17188 26476 ft 521 kts 147°
2026-05-04 02:26 27.62976 -80.14679 26910 ft 512 kts 154°
2026-05-04 02:26 27.59927 -80.12757 27682 ft 492 kts 164°
2026-05-04 02:26 27.56779 -80.11364 28387 ft 482 kts 168°
2026-05-04 02:27 27.53639 -80.10059 28891 ft 480 kts 168°
2026-05-04 02:27 27.50500 -80.08769 29049 ft 479 kts 169°
2026-05-04 02:27 27.44241 -80.06212 29075 ft 477 kts 169°
2026-05-04 02:28 27.38009 -80.03681 28716 ft 479 kts 170°
2026-05-04 02:28 27.34836 -80.02540 28585 ft 479 kts 172°
2026-05-04 02:28 27.31633 -80.01520 28003 ft 478 kts 173°
2026-05-04 02:29 27.28412 -80.00587 27365 ft 478 kts 174°
2026-05-04 02:29 27.25194 -79.99682 26740 ft 476 kts 174°
2026-05-04 02:29 27.21979 -79.98698 26114 ft 478 kts 172°
2026-05-04 02:29 27.18784 -79.97608 25502 ft 481 kts 170°
2026-05-04 02:30 27.15580 -79.96433 24890 ft 483 kts 169°
2026-05-04 02:30 27.12383 -79.95224 24295 ft 485 kts 169°
2026-05-04 02:30 27.09176 -79.94008 23691 ft 487 kts 169°
2026-05-04 02:30 27.05960 -79.92797 23058 ft 486 kts 168°
2026-05-04 02:31 27.02811 -79.91571 22471 ft 483 kts 167°
2026-05-04 02:31 26.99660 -79.90298 21860 ft 480 kts 167°
2026-05-04 02:31 26.96528 -79.89004 21230 ft 476 kts 166°
2026-05-04 02:31 26.93428 -79.87717 20607 ft 472 kts 166°
2026-05-04 02:32 26.90343 -79.86451 19963 ft 467 kts 166°
2026-05-04 02:32 26.87304 -79.85218 19311 ft 462 kts 166°
2026-05-04 02:32 26.84279 -79.84001 18662 ft 459 kts 166°
2026-05-04 02:32 26.81311 -79.82813 17967 ft 456 kts 166°
2026-05-04 02:33 26.78351 -79.81627 17218 ft 446 kts 166°
2026-05-04 02:33 26.75465 -79.80466 16640 ft 435 kts 165°
2026-05-04 02:33 26.72624 -79.79384 16002 ft 424 kts 171°
2026-05-04 02:33 26.69810 -79.79009 15405 ft 391 kts 186°
2026-05-04 02:34 26.67234 -79.79436 14863 ft 360 kts 200°
2026-05-04 02:34 26.64945 -79.80337 14354 ft 338 kts 204°
2026-05-04 02:34 26.62786 -79.81218 13871 ft 322 kts 204°
2026-05-04 02:34 26.60733 -79.82054 13370 ft 317 kts 204°
2026-05-04 02:35 26.58655 -79.82906 12895 ft 319 kts 204°
2026-05-04 02:35 26.56569 -79.83761 12387 ft 318 kts 204°
2026-05-04 02:35 26.54502 -79.84620 11894 ft 316 kts 205°
2026-05-04 02:35 26.52469 -79.85540 11406 ft 314 kts 206°
2026-05-04 02:36 26.50463 -79.86492 10920 ft 313 kts 207°
2026-05-04 02:36 26.48459 -79.87458 10432 ft 312 kts 207°
2026-05-04 02:36 26.46491 -79.88402 9970 ft 312 kts 206°
2026-05-04 02:36 26.44498 -79.89351 9463 ft 311 kts 206°
2026-05-04 02:37 26.42528 -79.90284 8987 ft 301 kts 206°
2026-05-04 02:37 26.40639 -79.91171 8553 ft 286 kts 206°
2026-05-04 02:37 26.38813 -79.92027 8139 ft 284 kts 207°
2026-05-04 02:37 26.37108 -79.93047 8002 ft 273 kts 213°
2026-05-04 02:38 26.35452 -79.94121 8017 ft 277 kts 213°
2026-05-04 02:38 26.33773 -79.95201 8016 ft 278 kts 213°
2026-05-04 02:38 26.32111 -79.96268 7913 ft 279 kts 213°
2026-05-04 02:38 26.30432 -79.97343 7579 ft 277 kts 213°
2026-05-04 02:39 26.28763 -79.98409 7215 ft 277 kts 213°
2026-05-04 02:39 26.27097 -79.99475 6833 ft 276 kts 213°
2026-05-04 02:39 26.25430 -80.00545 6459 ft 276 kts 213°
2026-05-04 02:39 26.23767 -80.01617 6087 ft 275 kts 212°
2026-05-04 02:40 26.22138 -80.02666 6008 ft 267 kts 212°
2026-05-04 02:40 26.20527 -80.03701 6011 ft 266 kts 212°
2026-05-04 02:40 26.19034 -80.04901 6017 ft 263 kts 225°
2026-05-04 02:40 26.17879 -80.06467 6018 ft 262 kts 239°
2026-05-04 02:41 26.17128 -80.08288 6016 ft 261 kts 252°
2026-05-04 02:41 26.16559 -80.10217 6010 ft 261 kts 251°
2026-05-04 02:41 26.15982 -80.12144 6009 ft 261 kts 251°
2026-05-04 02:41 26.15419 -80.14020 6008 ft 252 kts 252°
2026-05-04 02:42 26.15055 -80.15918 6009 ft 251 kts 264°
2026-05-04 02:42 26.15030 -80.17865 6012 ft 250 kts 269°
2026-05-04 02:42 26.15040 -80.19761 6007 ft 242 kts 269°
2026-05-04 02:42 26.15051 -80.21584 5915 ft 231 kts 269°
2026-05-04 02:43 26.15061 -80.23379 5523 ft 232 kts 269°
2026-05-04 02:43 26.15069 -80.25185 5133 ft 234 kts 269°
2026-05-04 02:43 26.15085 -80.26999 4730 ft 236 kts 270°
2026-05-04 02:43 26.15106 -80.28833 4308 ft 238 kts 270°
2026-05-04 02:44 26.15113 -80.30671 3966 ft 236 kts 269°
2026-05-04 02:44 26.15104 -80.32475 3604 ft 236 kts 269°
2026-05-04 02:44 26.15070 -80.34301 3240 ft 235 kts 264°
2026-05-04 02:44 26.14503 -80.35974 3001 ft 228 kts 231°
2026-05-04 02:45 26.13257 -80.36948 3004 ft 225 kts 198°
2026-05-04 02:45 26.11701 -80.36994 3007 ft 228 kts 165°
2026-05-04 02:45 26.10356 -80.36077 3010 ft 231 kts 135°
2026-05-04 02:45 26.09326 -80.34682 3011 ft 232 kts 127°
2026-05-04 02:46 26.08395 -80.33210 2997 ft 234 kts 124°
2026-05-04 02:46 26.07798 -80.31525 2630 ft 238 kts 97°
2026-05-04 02:46 26.07752 -80.29687 2298 ft 237 kts 90°
2026-05-04 02:46 26.07749 -80.27856 1985 ft 235 kts 90°
2026-05-04 02:47 26.07743 -80.26078 1680 ft 227 kts 90°
2026-05-04 02:47 26.07735 -80.24409 1398 ft 208 kts 89°
2026-05-04 02:47 26.07726 -80.22856 1149 ft 192 kts 89°
2026-05-04 02:47 26.07719 -80.21456 910 ft 170 kts 88°
2026-05-04 02:48 26.07712 -80.20212 713 ft 150 kts 88°
2026-05-04 02:48 26.07708 -80.19455 568 ft 139 kts 89°
2026-05-04 02:48 26.07704 -80.18411 388 ft 135 kts 88°
2026-05-04 02:48 26.07702 -80.17388 238 ft 132 kts 89°
2026-05-04 02:49 26.07694 -80.16374 52 ft 130 kts 86°
2026-05-04 02:49 26.07689 -80.15463 17 ft 98 kts 91°
2026-05-04 02:49 26.07686 -80.14906 23 ft 48 kts 90°
2026-05-04 02:49 26.07652 -80.14657 24 ft 21 kts 112°
2026-05-04 02:50 26.07585 -80.14518 27 ft 15 kts 115°
2026-05-04 02:50 26.07558 -80.14392 26 ft 19 kts 90°
2026-05-04 02:50 26.07549 -80.14256 27 ft 17 kts 117°
2026-05-04 02:50 26.07469 -80.14197 24 ft 7 kts 157°
2026-05-04 02:51 26.07430 -80.14181 24 ft 4 kts 159°
2026-05-04 02:51 26.07394 -80.14159 24 ft 7 kts 134°
2026-05-04 02:51 26.07384 -80.14133 24 ft 3 kts 111°
2026-05-04 02:51 26.07379 -80.14120 23 ft 1 kts 111°
2026-05-04 02:52 26.07379 -80.14119 23 ft 0 kts 111°
2026-05-04 02:58 26.06933 -80.14600 21 ft 0 kts 91°